This demonstration page uses our WeatherBlox Daily Observations layout. Learn more.

Left ArrowRight Arrow

39.92423, -83.80882

Hourly Observations for August 6, 2021

Temp ( °F °C ) Dew Point ( °F °C ) Humidity (%) Winds ( mph kmh ) Pressure ( in mb ) Visibility ( mi km ) Precip ( " mm )
12:56 am 00:56 Clear 66 19 N/A N/A SSE 5 7 30.10 1019 10 16 0.00 0.00
1:56 am 01:56 Clear 63 17 N/A N/A SSE 5 7 30.10 1019 8 13 0.00 0.00
2:56 am 02:56 Clear 67 19.4 67 19.4 100 100 S 6 9 30.09 1019 10 16 0.00 0.00
3:56 am 03:56 Clear 65 18.3 65 18.3 100 100 S 6 9 30.09 1019 10 16 0.00 0.00
4:56 am 04:56 Clear 65 18.3 65 18.3 100 100 S 5 7 30.09 1019 10 16 0.00 0.00
5:56 am 05:56 Clear 63 17 N/A N/A S 3 6 30.10 1019 10 16 0.00 0.00
6:56 am 06:56 Sunny 63 17 N/A N/A S 3 6 30.11 1020 10 16 0.00 0.00
7:56 am 07:56 Sunny 66 19 N/A N/A Calm 30.12 1020 10 16 0.00 0.00
8:56 am 08:56 Partly Cloudy 70 21.1 69 20.6 97 97 SSW 5 7 30.13 1020 10 16 0.00 0.00
9:56 am 09:56 Mostly Cloudy 75 23.9 69 20.6 82 82 SSW 7 11 30.14 1021 10 16 0.00 0.00
10:56 am 10:56 Partly Cloudy 77 25 68 20 74 74 S 5 7 30.14 1021 10 16 0.00 0.00
11:56 am 11:56 Sunny 80 26.7 66 18.9 62 62 WSW 13 20 30.14 1021 10 16 0.00 0.00
12:56 pm 12:56 Mostly Sunny 81 27.2 66 18.9 61 61 WSW 8 13 30.13 1020 10 16 0.00 0.00
1:56 pm 13:56 Mostly Sunny 80 26.7 65 18.3 60 60 WSW 10 17 30.11 1020 10 16 0.00 0.00
2:56 pm 14:56 Mostly Sunny 82 27.8 65 18.3 56 56 SW 8 13 30.10 1019 10 16 0.00 0.00
3:56 pm 15:56 Partly Cloudy 82 27.8 66 18.9 58 58 SW 7 11 30.09 1019 10 16 0.00 0.00
4:56 pm 16:56 Sunny 82 27.8 66 18.9 58 58 S 5 7 30.07 1018 10 16 0.00 0.00
5:56 pm 17:56 Sunny 81 27.2 66 18.9 61 61 SSW 3 6 30.06 1018 10 16 0.00 0.00
6:56 pm 18:56 Sunny 79 26.1 69 20.6 72 72 SSE 3 6 30.05 1018 10 16 0.00 0.00
7:56 pm 19:56 Sunny 77 25 70 21.1 79 79 SSE 5 7 30.05 1018 10 16 0.00 0.00
8:56 pm 20:56 Clear 73 22.8 71 21.7 94 94 SSE 6 9 30.06 1018 10 16 0.00 0.00
9:56 pm 21:56 Mostly Clear 73 22.8 73 22.8 100 100 S 3 6 30.07 1018 10 16 0.00 0.00
10:56 pm 22:56 Clear 72 22 N/A N/A Calm 30.08 1019 10 16 0.00 0.00
11:56 pm 23:56 Clear 68 20 N/A N/A Calm 30.08 1019 9 14 0.00 0.00

Powered by AerisWeather